Time,TemperatureF,DewpointF,PressureIn,WindDirection,WindDirectionDegrees,WindSpeedMPH,WindSpeedGustMPH,Humidity,HourlyPrecipIn,Conditions,Clouds,dailyrainin,SoftwareType,DateUTC
2013-10-15 00:00:00,46.7,41.0,30.23,SSE,162,0.0,-999.0,79,-99.99,,,0.00,weatherlink.com 1.10,2013-10-15 04:00:00,
2013-10-15 00:16:00,47.6,41.0,30.23,SSE,162,0.0,-999.0,79,-99.99,,,0.00,weatherlink.com 1.10,2013-10-15 04:16:00,
2013-10-15 00:30:00,47.8,42.0,30.22,SSE,162,0.0,-999.0,79,-99.99,,,0.00,weatherlink.com 1.10,2013-10-15 04:30:00,
2013-10-15 00:45:00,48.1,42.0,30.22,SSE,162,0.0,-999.0,79,-99.99,,,0.00,weatherlink.com 1.10,2013-10-15 04:45:00,
2013-10-15 01:00:00,47.9,42.0,30.22,SSE,162,0.0,-999.0,79,-99.99,,,0.00,weatherlink.com 1.10,2013-10-15 05:00:00,
2013-10-15 01:15:00,47.3,41.0,30.21,SSE,162,0.0,-999.0,79,-99.99,,,0.00,weatherlink.com 1.10,2013-10-15 05:15:00,
2013-10-15 01:30:00,46.6,40.0,30.21,SSE,162,0.0,-999.0,79,-99.99,,,0.00,weatherlink.com 1.10,2013-10-15 05:30:00,
2013-10-15 01:45:00,46.0,40.0,30.20,SSE,162,0.0,-999.0,79,-99.99,,,0.00,weatherlink.com 1.10,2013-10-15 05:45:00,
2013-10-15 02:00:00,46.3,40.0,30.21,SSE,162,0.0,-999.0,79,-99.99,,,0.00,weatherlink.com 1.10,2013-10-15 06:00:00,
2013-10-15 02:15:00,46.7,41.0,30.21,SSE,162,0.0,-999.0,79,-99.99,,,0.00,weatherlink.com 1.10,2013-10-15 06:15:00,
2013-10-15 02:30:00,47.8,41.0,30.21,SSE,162,0.0,-999.0,78,-99.99,,,0.00,weatherlink.com 1.10,2013-10-15 06:30:00,
2013-10-15 02:45:00,48.1,42.0,30.20,SSE,162,0.0,-999.0,78,-99.99,,,0.00,weatherlink.com 1.10,2013-10-15 06:45:00,
2013-10-15 03:00:00,48.6,42.0,30.21,SSE,162,0.0,-999.0,78,-99.99,,,0.00,weatherlink.com 1.10,2013-10-15 07:00:00,
2013-10-15 03:15:00,49.2,43.0,30.20,SSE,162,0.0,-999.0,78,-99.99,,,0.00,weatherlink.com 1.10,2013-10-15 07:15:00,
2013-10-15 03:30:00,49.5,43.0,30.20,SSE,162,0.0,-999.0,78,-99.99,,,0.00,weatherlink.com 1.10,2013-10-15 07:30:00,
2013-10-15 03:45:00,49.4,43.0,30.20,SSE,162,0.0,-999.0,78,-99.99,,,0.00,weatherlink.com 1.10,2013-10-15 07:45:00,
2013-10-15 04:00:00,49.5,43.0,30.20,SSE,162,0.0,-999.0,78,-99.99,,,0.00,weatherlink.com 1.10,2013-10-15 08:00:00,
2013-10-15 04:15:00,48.9,42.0,30.19,SSE,162,0.0,-999.0,78,-99.99,,,0.00,weatherlink.com 1.10,2013-10-15 08:15:00,
2013-10-15 04:30:00,47.9,42.0,30.20,SSE,162,0.0,-999.0,79,-99.99,,,0.00,weatherlink.com 1.10,2013-10-15 08:30:00,
2013-10-15 04:45:00,47.2,41.0,30.20,SSE,162,0.0,-999.0,79,-99.99,,,0.00,weatherlink.com 1.10,2013-10-15 08:45:00,
2013-10-15 05:01:00,46.9,41.0,30.20,SSE,162,0.0,-999.0,79,-99.99,,,0.00,weatherlink.com 1.10,2013-10-15 09:01:00,
2013-10-15 05:15:00,46.7,41.0,30.20,SSE,162,0.0,-999.0,79,-99.99,,,0.00,weatherlink.com 1.10,2013-10-15 09:15:00,
2013-10-15 05:30:00,46.6,40.0,30.20,SSE,162,0.0,-999.0,79,-99.99,,,0.00,weatherlink.com 1.10,2013-10-15 09:30:00,
2013-10-15 05:45:00,46.3,40.0,30.21,SSE,162,0.0,-999.0,78,-99.99,,,0.00,weatherlink.com 1.10,2013-10-15 09:45:00,
2013-10-15 06:00:00,46.7,40.0,30.21,SSE,162,0.0,-999.0,78,-99.99,,,0.00,weatherlink.com 1.10,2013-10-15 10:00:00,
2013-10-15 06:15:00,47.2,41.0,30.21,SSE,162,0.0,-999.0,78,-99.99,,,0.00,weatherlink.com 1.10,2013-10-15 10:15:00,
2013-10-15 06:30:00,47.6,41.0,30.21,SSE,162,0.0,-999.0,78,-99.99,,,0.00,weatherlink.com 1.10,2013-10-15 10:30:00,
2013-10-15 06:45:00,48.0,41.0,30.20,SSE,162,0.0,-999.0,78,-99.99,,,0.00,weatherlink.com 1.10,2013-10-15 10:45:00,
2013-10-15 07:00:00,48.2,42.0,30.21,SSE,162,0.0,-999.0,78,-99.99,,,0.00,weatherlink.com 1.10,2013-10-15 11:00:00,
2013-10-15 07:15:00,48.7,42.0,30.21,SSE,162,0.0,-999.0,77,-99.99,,,0.00,weatherlink.com 1.10,2013-10-15 11:15:00,
2013-10-15 07:30:00,49.5,43.0,30.21,SSE,165,0.0,-999.0,77,-99.99,,,0.00,weatherlink.com 1.10,2013-10-15 11:30:00,
2013-10-15 07:45:00,50.3,43.0,30.22,SSE,165,0.0,-999.0,77,-99.99,,,0.00,weatherlink.com 1.10,2013-10-15 11:45:00,
2013-10-15 08:00:00,51.4,44.0,30.21,SSE,165,0.0,-999.0,77,-99.99,,,0.00,weatherlink.com 1.10,2013-10-15 12:00:00,
2013-10-15 08:15:00,52.6,46.0,30.22,SSE,166,0.0,-999.0,77,-99.99,,,0.00,weatherlink.com 1.10,2013-10-15 12:15:00,
2013-10-15 08:30:00,54.2,47.0,30.22,East,82,0.0,-999.0,78,-99.99,,,0.00,weatherlink.com 1.10,2013-10-15 12:30:00,
2013-10-15 08:45:00,55.8,50.0,30.23,NNE,14,0.0,-999.0,80,-99.99,,,0.00,weatherlink.com 1.10,2013-10-15 12:45:00,
2013-10-15 09:00:00,56.5,50.0,30.23,NNE,21,0.0,-999.0,80,-99.99,,,0.00,weatherlink.com 1.10,2013-10-15 13:00:00,
2013-10-15 09:15:00,57.5,51.0,30.22,North,360,0.0,-999.0,80,-99.99,,,0.00,weatherlink.com 1.10,2013-10-15 13:15:00,
2013-10-15 09:30:00,58.1,52.0,30.22,North,355,0.0,-999.0,81,-99.99,,,0.00,weatherlink.com 1.10,2013-10-15 13:30:00,
2013-10-15 09:45:00,58.1,52.0,30.22,NNW,339,0.0,-999.0,80,-99.99,,,0.00,weatherlink.com 1.10,2013-10-15 13:45:00,
2013-10-15 10:00:00,58.5,52.0,30.23,North,360,0.0,-999.0,80,-99.99,,,0.00,weatherlink.com 1.10,2013-10-15 14:00:00,
2013-10-15 10:16:00,59.1,53.0,30.23,NNE,17,0.0,-999.0,80,-99.99,,,0.00,weatherlink.com 1.10,2013-10-15 14:16:00,
2013-10-15 10:31:00,59.5,53.0,30.23,NNE,19,0.0,-999.0,79,-99.99,,,0.00,weatherlink.com 1.10,2013-10-15 14:31:00,
2013-10-15 10:46:00,59.9,53.0,30.22,NNE,30,0.0,-999.0,79,-99.99,,,0.00,weatherlink.com 1.10,2013-10-15 14:46:00,
2013-10-15 11:01:00,60.9,54.0,30.22,North,5,0.0,-999.0,78,-99.99,,,0.00,weatherlink.com 1.10,2013-10-15 15:01:00,
2013-10-15 11:15:00,61.3,55.0,30.22,North,360,0.0,-999.0,79,-99.99,,,0.00,weatherlink.com 1.10,2013-10-15 15:15:00,
2013-10-15 11:31:00,61.3,54.0,30.22,NNE,29,0.0,-999.0,77,-99.99,,,0.00,weatherlink.com 1.10,2013-10-15 15:31:00,
2013-10-15 11:46:00,62.0,55.0,30.22,NNE,22,0.0,-999.0,78,-99.99,,,0.00,weatherlink.com 1.10,2013-10-15 15:46:00,
2013-10-15 12:01:00,62.8,55.0,30.22,ENE,59,0.0,-999.0,76,-99.99,,,0.00,weatherlink.com 1.10,2013-10-15 16:01:00,
2013-10-15 12:16:00,62.6,55.0,30.21,NNE,19,0.0,-999.0,76,-99.99,,,0.00,weatherlink.com 1.10,2013-10-15 16:16:00,
2013-10-15 12:31:00,62.7,55.0,30.21,North,355,0.0,-999.0,76,-99.99,,,0.00,weatherlink.com 1.10,2013-10-15 16:31:00,
2013-10-15 12:46:00,62.8,56.0,30.20,North,5,0.0,-999.0,77,-99.99,,,0.00,weatherlink.com 1.10,2013-10-15 16:46:00,
2013-10-15 13:01:00,63.0,55.0,30.20,NNE,22,0.0,-999.0,76,-99.99,,,0.00,weatherlink.com 1.10,2013-10-15 17:01:00,
2013-10-15 13:16:00,63.7,56.0,30.20,NNE,16,0.0,-999.0,76,-99.99,,,0.00,weatherlink.com 1.10,2013-10-15 17:16:00,
2013-10-15 13:31:00,63.4,56.0,30.19,NE,46,0.0,-999.0,78,-99.99,,,0.00,weatherlink.com 1.10,2013-10-15 17:31:00,
2013-10-15 13:46:00,63.7,56.0,30.18,NNE,30,0.0,-999.0,76,-99.99,,,0.00,weatherlink.com 1.10,2013-10-15 17:46:00,
2013-10-15 14:01:00,64.4,57.0,30.18,North,355,0.0,-999.0,76,-99.99,,,0.00,weatherlink.com 1.10,2013-10-15 18:01:00,
2013-10-15 14:16:00,64.9,57.0,30.17,North,5,0.0,-999.0,75,-99.99,,,0.00,weatherlink.com 1.10,2013-10-15 18:16:00,
2013-10-15 14:31:00,65.7,56.0,30.17,NE,53,0.0,-999.0,72,-99.99,,,0.00,weatherlink.com 1.10,2013-10-15 18:31:00,
2013-10-15 14:46:00,65.8,56.0,30.17,NE,42,0.0,-999.0,71,-99.99,,,0.00,weatherlink.com 1.10,2013-10-15 18:46:00,
2013-10-15 15:01:00,65.0,56.0,30.17,NE,53,0.0,-999.0,72,-99.99,,,0.00,weatherlink.com 1.10,2013-10-15 19:01:00,
2013-10-15 15:16:00,64.5,56.0,30.17,NE,53,0.0,-999.0,74,-99.99,,,0.00,weatherlink.com 1.10,2013-10-15 19:16:00,
2013-10-15 15:31:00,63.9,56.0,30.16,East,93,0.0,-999.0,76,-99.99,,,0.00,weatherlink.com 1.10,2013-10-15 19:31:00,
2013-10-15 15:46:00,63.6,56.0,30.16,NNE,17,0.0,-999.0,75,-99.99,,,0.00,weatherlink.com 1.10,2013-10-15 19:46:00,
2013-10-15 16:01:00,63.4,56.0,30.15,West,281,0.0,-999.0,77,-99.99,,,0.00,weatherlink.com 1.10,2013-10-15 20:01:00,
2013-10-15 16:16:00,63.1,56.0,30.15,NE,44,0.0,-999.0,77,-99.99,,,0.00,weatherlink.com 1.10,2013-10-15 20:16:00,
2013-10-15 16:31:00,62.7,55.0,30.16,NNE,28,0.0,-999.0,77,-99.99,,,0.00,weatherlink.com 1.10,2013-10-15 20:31:00,
2013-10-15 16:46:00,61.4,55.0,30.15,East,90,0.0,-999.0,78,-99.99,,,0.00,weatherlink.com 1.10,2013-10-15 20:46:00,
2013-10-15 17:01:00,60.8,54.0,30.15,East,95,0.0,-999.0,79,-99.99,,,0.00,weatherlink.com 1.10,2013-10-15 21:01:00,
2013-10-15 17:16:00,60.1,54.0,30.15,East,79,0.0,-999.0,79,-99.99,,,0.00,weatherlink.com 1.10,2013-10-15 21:16:00,
2013-10-15 17:31:00,59.3,53.0,30.15,NE,38,0.0,-999.0,80,-99.99,,,0.00,weatherlink.com 1.10,2013-10-15 21:31:00,
2013-10-15 17:46:00,58.1,52.0,30.15,ENE,66,0.0,-999.0,80,-99.99,,,0.00,weatherlink.com 1.10,2013-10-15 21:46:00,
2013-10-15 18:01:00,57.2,51.0,30.15,ENE,66,0.0,-999.0,80,-99.99,,,0.00,weatherlink.com 1.10,2013-10-15 22:01:00,
2013-10-15 18:16:00,56.0,50.0,30.15,ENE,65,0.0,-999.0,79,-99.99,,,0.00,weatherlink.com 1.10,2013-10-15 22:16:00,
2013-10-15 18:31:00,54.3,48.0,30.15,ENE,65,0.0,-999.0,79,-99.99,,,0.00,weatherlink.com 1.10,2013-10-15 22:31:00,
2013-10-15 18:46:00,53.5,47.0,30.16,ENE,65,0.0,-999.0,78,-99.99,,,0.00,weatherlink.com 1.10,2013-10-15 22:46:00,
2013-10-15 19:01:00,52.8,46.0,30.18,ENE,65,0.0,-999.0,78,-99.99,,,0.00,weatherlink.com 1.10,2013-10-15 23:01:00,
2013-10-15 19:16:00,52.6,46.0,30.18,ENE,65,0.0,-999.0,78,-99.99,,,0.00,weatherlink.com 1.10,2013-10-15 23:16:00,
2013-10-15 19:31:00,52.2,45.0,30.18,ENE,65,0.0,-999.0,77,-99.99,,,0.00,weatherlink.com 1.10,2013-10-15 23:31:00,
2013-10-15 19:46:00,51.4,44.0,30.18,ENE,65,0.0,-999.0,77,-99.99,,,0.00,weatherlink.com 1.10,2013-10-15 23:46:00,
2013-10-15 20:01:00,51.0,44.0,30.18,ENE,65,0.0,-999.0,77,-99.99,,,0.00,weatherlink.com 1.10,2013-10-16 00:01:00,
2013-10-15 20:16:00,50.9,44.0,30.18,ENE,65,0.0,-999.0,77,-99.99,,,0.00,weatherlink.com 1.10,2013-10-16 00:16:00,
2013-10-15 20:31:00,50.8,44.0,30.18,ENE,65,0.0,-999.0,77,-99.99,,,0.00,weatherlink.com 1.10,2013-10-16 00:31:00,
2013-10-15 20:46:00,50.1,43.0,30.18,ENE,65,0.0,-999.0,77,-99.99,,,0.00,weatherlink.com 1.10,2013-10-16 00:46:00,
2013-10-15 21:01:00,49.5,43.0,30.17,ENE,65,0.0,-999.0,77,-99.99,,,0.00,weatherlink.com 1.10,2013-10-16 01:01:00,
2013-10-15 21:16:00,49.0,42.0,30.17,ENE,65,0.0,-999.0,77,-99.99,,,0.00,weatherlink.com 1.10,2013-10-16 01:16:00,
2013-10-15 21:31:00,48.2,42.0,30.17,ENE,65,0.0,-999.0,78,-99.99,,,0.00,weatherlink.com 1.10,2013-10-16 01:31:00,
2013-10-15 21:46:00,48.1,42.0,30.17,ENE,65,0.0,-999.0,78,-99.99,,,0.00,weatherlink.com 1.10,2013-10-16 01:46:00,
2013-10-15 22:01:00,47.9,41.0,30.18,ENE,65,0.0,-999.0,78,-99.99,,,0.00,weatherlink.com 1.10,2013-10-16 02:01:00,
2013-10-15 22:16:00,48.8,42.0,30.18,ENE,65,0.0,-999.0,77,-99.99,,,0.00,weatherlink.com 1.10,2013-10-16 02:16:00,
2013-10-15 22:31:00,49.3,42.0,30.18,ENE,65,0.0,-999.0,77,-99.99,,,0.00,weatherlink.com 1.10,2013-10-16 02:31:00,
2013-10-15 22:46:00,49.6,43.0,30.18,ENE,65,0.0,-999.0,77,-99.99,,,0.00,weatherlink.com 1.10,2013-10-16 02:46:00,
2013-10-15 23:01:00,50.0,43.0,30.17,ENE,65,0.0,-999.0,77,-99.99,,,0.00,weatherlink.com 1.10,2013-10-16 03:01:00,
2013-10-15 23:16:00,50.4,43.0,30.16,ENE,65,0.0,-999.0,77,-99.99,,,0.00,weatherlink.com 1.10,2013-10-16 03:16:00,
2013-10-15 23:31:00,50.1,43.0,30.14,ENE,65,0.0,-999.0,77,-99.99,,,0.00,weatherlink.com 1.10,2013-10-16 03:31:00,
2013-10-15 23:46:00,49.5,43.0,30.14,ENE,65,0.0,-999.0,77,-99.99,,,0.00,weatherlink.com 1.10,2013-10-16 03:46:00,